Tracking 28052 objects as of 23-Sep-2023
HD Live streaming from Space Station
objects crossing your sky now

SL-8 DEB

Track SL-8 DEB now!
10-day predictions


NORAD ID: 24818
Int'l Code: 1977-087C
Perigee: 943.8 km
Apogee: 991.8 km
Inclination: 83.0 °
Period: 104.3 minutes
Semi major axis: 7338 km
RCS: 0.0052 m2 (small)
Launch date: September 13, 1977
Source: Commonwealth of Independent States (former USSR) (CIS)
Launch site: PLESETSK MISSILE AND SPACE COMPLEX (PKMTR)

Note: This is SATELLITE DEBRIS
Your satellite tracking list
Your tracking list is empty




NASA's NSSDC Master Catalog

Two Line Element Set (TLE):
1 24818U 77087C   23265.91095204  .00000473  00000-0  43303-3 0  9990
2 24818  82.9646 118.9056 0032709 358.0080  64.7457 13.80903366311787
Source of the keplerian elements: AFSPC